GW1431 Weather Reports


time (UTC)temp
C
wind
direction
speed
KPH
gust
KPH
rain 1hr
cm
rain 24hr
cm
rain mn
cm
humidity
%
barometer
mb
20260504070223 5 207 0.0 0.0 0.00 0.03 0.00 72 1014.8
20260504050652 6 231 1.6 3.2 0.00 0.05 0.00 64 1015.2
20260504050152 6 231 1.6 3.2 0.00 0.05 0.00 66 1015.2
20260504045654 6 350 0.0 1.6 0.00 0.05 0.00 68 1015.1
20260504045152 6 350 0.0 1.6 0.00 0.05 0.00 68 1015.1
20260504044652 6 350 0.0 1.6 0.00 0.05 0.00 68 1015.1
20260504044153 6 350 0.0 0.0 0.00 0.05 0.00 69 1015.1
20260504043151 6 350 0.0 0.0 0.00 0.05 0.00 69 1015.0
20260504042152 6 350 0.0 0.0 0.00 0.05 0.00 67 1015.0
20260504041646 6 350 0.0 0.0 0.00 0.05 0.00 70 1015.0
20260504041139 6 350 0.0 1.6 0.00 0.05 0.00 68 1014.9
20260504040633 6 350 0.0 1.6 0.00 0.05 0.00 67 1014.8
20260504040127 6 350 0.0 0.0 0.00 0.05 0.00 66 1014.8
20260504035116 7 350 0.0 0.0 0.00 0.05 0.05 66 1014.8
20260504034611 7 350 0.0 0.0 0.00 0.05 0.05 67 1014.9
20260504034105 7 350 0.0 1.6 0.00 0.05 0.05 68 1014.9
20260504033558 7 350 0.0 1.6 0.00 0.05 0.05 66 1014.9
20260504033052 7 350 0.0 1.6 0.00 0.05 0.05 67 1014.9
20260504032041 7 350 0.0 0.0 0.00 0.05 0.05 64 1014.8
20260504031535 7 350 0.0 0.0 0.00 0.05 0.05 63 1014.7
20260504031028 7 350 0.0 0.0 0.00 0.05 0.05 65 1014.6
20260504030522 7 350 0.0 0.0 0.00 0.05 0.05 65 1014.7
20260504025511 7 350 0.0 0.0 0.00 0.05 0.05 66 1014.6
20260504025005 7 350 0.0 0.0 0.00 0.05 0.05 65 1014.6
20260504024458 7 350 0.0 0.0 0.00 0.05 0.05 66 1014.6
20260504023953 7 350 0.0 1.6 0.00 0.05 0.05 66 1014.6
20260504022939 7 350 0.0 0.0 0.00 0.05 0.05 64 1014.6
20260504022438 7 350 0.0 0.0 0.00 0.05 0.05 62 1014.6
20260504021938 7 350 0.0 0.0 0.00 0.05 0.05 63 1014.6
20260504021436 7 350 0.0 1.6 0.00 0.05 0.05 66 1014.5
20260504020938 7 350 0.0 1.6 0.00 0.05 0.05 66 1014.5
20260504020436 8 350 0.0 1.6 0.00 0.05 0.05 64 1014.5
20260504015933 8 350 0.0 0.0 0.00 0.05 0.05 61 1014.5
20260504015434 8 350 0.0 0.0 0.00 0.05 0.05 60 1014.5
20260504014430 8 350 0.0 1.6 0.00 0.05 0.05 63 1014.5
20260504013925 8 350 0.0 1.6 0.00 0.05 0.05 63 1014.5
20260504013427 8 350 0.0 0.0 0.00 0.05 0.05 59 1014.4
20260504012924 8 350 0.0 0.0 0.00 0.05 0.05 57 1014.4
20260504012422 8 350 0.0 3.2 0.00 0.05 0.05 56 1014.4
20260504011922 8 350 0.0 3.2 0.00 0.05 0.05 55 1014.2
20260504011423 9 350 0.0 1.6 0.00 0.05 0.05 60 1014.2
20260504010918 9 350 0.0 1.6 0.00 0.05 0.05 58 1014.1
20260504010417 9 350 0.0 0.0 0.00 0.05 0.05 54 1014.1
20260504005917 10 350 0.0 3.2 0.00 0.05 0.05 51 1014.2
20260504005417 10 350 0.0 3.2 0.00 0.05 0.05 50 1014.2
20260504004916 10 350 0.0 0.0 0.00 0.05 0.05 49 1014.1
20260504004415 10 350 0.0 0.0 0.00 0.05 0.05 49 1014.0
20260504003915 10 350 0.0 0.0 0.00 0.05 0.05 47 1013.9
20260504003415 11 350 0.0 0.0 0.00 0.05 0.05 47 1014.0
20260504001916 11 350 0.0 0.0 0.00 0.05 0.05 46 1013.7
20260504001417 11 350 0.0 1.6 0.00 0.05 0.05 45 1013.8
20260504000917 12 350 0.0 1.6 0.00 0.05 0.05 44 1013.8
20260504000416 12 350 0.0 1.6 0.00 0.05 0.05 43 1013.7
20260503235917 12 350 0.0 1.6 0.00 0.05 0.05 43 1013.7
20260503235416 12 350 0.0 1.6 0.00 0.05 0.05 43 1013.6
20260503234916 13 350 0.0 3.2 0.00 0.05 0.05 43 1013.6
20260503233914 13 312 1.6 4.8 0.00 0.05 0.05 41 1013.5
20260503233415 13 312 1.6 4.8 0.00 0.05 0.05 39 1013.4
20260503232914 13 312 1.6 4.8 0.00 0.05 0.05 38 1013.4
20260503232412 13 286 0.0 4.8 0.00 0.05 0.05 38 1013.3
20260503231910 14 323 1.6 4.8 0.00 0.05 0.05 39 1013.1
20260503231410 14 75 1.6 6.4 0.00 0.05 0.05 38 1013.1
20260503230912 14 332 3.2 8.0 0.00 0.05 0.05 37 1013.1
20260503230408 14 299 3.2 9.7 0.00 0.05 0.05 37 1013.1
20260503225909 14 257 3.2 9.7 0.00 0.05 0.05 36 1013.1
20260503225408 14 314 3.2 6.4 0.00 0.05 0.05 36 1013.3
20260503224908 14 294 3.2 11.3 0.00 0.05 0.05 38 1013.3
20260503224408 14 309 3.2 11.3 0.00 0.05 0.05 37 1013.3
20260503223905 14 268 3.2 9.7 0.00 0.05 0.05 38 1013.4
20260503223406 14 317 4.8 9.7 0.00 0.05 0.05 36 1013.3
20260503222905 14 313 3.2 11.3 0.00 0.05 0.05 37 1013.3
20260503222407 14 308 3.2 11.3 0.00 0.05 0.05 36 1013.3
20260503221906 14 315 3.2 11.3 0.00 0.05 0.05 36 1013.3
20260503221400 15 313 3.2 9.7 0.00 0.05 0.05 35 1013.3
20260503220855 15 238 3.2 8.0 0.00 0.05 0.05 37 1013.3
20260503215842 15 288 3.2 11.3 0.00 0.05 0.05 37 1013.4
20260503215335 15 298 1.6 11.3 0.00 0.05 0.05 38 1013.4
20260503214830 15 317 3.2 9.7 0.00 0.05 0.05 36 1013.4
20260503214325 15 294 3.2 9.7 0.00 0.05 0.05 34 1013.3
20260503213818 15 293 3.2 11.3 0.00 0.05 0.05 36 1013.3
20260503213312 15 40 4.8 14.5 0.00 0.05 0.05 36 1013.3
20260503212807 15 295 4.8 14.5 0.00 0.05 0.05 36 1013.3
20260503212300 14 301 1.6 8.0 0.00 0.05 0.05 35 1013.3
20260503211754 14 267 3.2 11.3 0.00 0.05 0.05 38 1013.1
20260503211248 14 295 4.8 14.5 0.00 0.05 0.05 36 1013.3
20260503210742 14 246 4.8 14.5 0.00 0.05 0.05 34 1013.3
20260503205730 14 344 3.2 11.3 0.00 0.05 0.05 36 1013.3
20260503204719 14 319 4.8 12.9 0.00 0.05 0.05 34 1013.1
20260503203204 14 290 4.8 17.7 0.00 0.05 0.05 35 1013.3
20260503202655 14 223 6.4 17.7 0.00 0.05 0.05 35 1013.3
20260503202157 14 291 6.4 12.9 0.00 0.05 0.05 34 1013.4
20260503201655 14 264 4.8 12.9 0.00 0.05 0.05 34 1013.4
20260503200656 15 292 3.2 12.9 0.00 0.05 0.05 36 1013.5
20260503200158 15 279 3.2 12.9 0.00 0.05 0.05 35 1013.6
20260503195654 14 327 3.2 12.9 0.00 0.05 0.05 35 1013.5
20260503195159 14 233 3.2 11.3 0.00 0.05 0.05 33 1013.8
20260503194651 14 298 3.2 11.3 0.00 0.05 0.05 36 1013.8
20260503194149 14 324 4.8 12.9 0.00 0.05 0.05 35 1013.9
20260503193651 15 5 4.8 12.9 0.00 0.05 0.05 34 1014.0
20260503193150 15 310 3.2 11.3 0.00 0.05 0.05 35 1013.9
20260503192651 15 323 3.2 11.3 0.00 0.05 0.05 35 1014.0
20260503192151 14 305 4.8 17.7 0.00 0.05 0.05 35 1014.0
20260503191649 14 308 6.4 20.9 0.00 0.05 0.05 34 1014.2
20260503191149 14 311 4.8 20.9 0.00 0.05 0.05 35 1014.2
20260503190650 14 231 3.2 12.9 0.00 0.05 0.05 39 1014.1
20260503185645 13 268 6.4 20.9 0.00 0.05 0.05 38 1014.4
20260503185139 13 286 8.0 22.5 0.00 0.05 0.05 37 1014.4
20260503184635 13 282 6.4 14.5 0.00 0.05 0.05 38 1014.5
20260503184127 13 288 6.4 14.5 0.00 0.05 0.05 35 1014.5
20260503183115 13 297 3.2 16.1 0.00 0.05 0.05 37 1014.6
20260503182609 13 268 3.2 12.9 0.00 0.05 0.05 41 1014.5
20260503182104 13 242 3.2 12.9 0.00 0.05 0.05 39 1014.4
20260503181557 13 292 3.2 11.3 0.00 0.05 0.05 37 1014.7
20260503181051 13 290 4.8 16.1 0.00 0.05 0.05 38 1014.6
20260503180545 13 293 6.4 16.1 0.00 0.05 0.05 39 1014.8
20260503180041 13 290 6.4 16.1 0.00 0.05 0.05 41 1014.7
20260503175542 13 277 4.8 16.1 0.00 0.05 0.05 37 1014.7
20260503175042 13 208 3.2 12.9 0.00 0.05 0.05 38 1014.7
20260503174543 12 307 4.8 9.7 0.00 0.05 0.05 39 1014.7
20260503174041 12 298 4.8 14.5 0.00 0.05 0.05 41 1014.7
20260503173039 12 294 6.4 16.1 0.00 0.05 0.05 39 1014.8
20260503172039 11 342 6.4 16.1 0.00 0.05 0.05 41 1014.9
20260503171539 11 342 6.4 17.7 0.00 0.05 0.05 43 1015.0
20260503171039 11 298 6.4 17.7 0.00 0.05 0.05 40 1015.0
20260503131000 6 279 8.0 19.3 0.00 0.05 0.03 56 1015.8
20260503130502 6 257 6.4 17.7 0.00 0.05 0.03 57 1015.9
20260503110344 3 261 3.2 6.4 0.00 0.05 0.03 71 1015.0
20260503090249 3 294 3.2 6.4 0.00 0.08 0.03 71 1013.5
20260503080742 3 295 3.2 8.0 0.00 0.08 0.03 71 1013.3
20260503080243 3 314 3.2 6.4 0.00 0.08 0.03 71 1013.1
20260503072238 4 298 1.6 4.8 0.00 0.08 0.03 72 1012.7
20260503071738 4 295 1.6 4.8 0.00 0.08 0.03 72 1012.7